Tracking 28794 objects as of 19-Apr-2024
HD Live streaming from Space Station
objects crossing your sky now

GALAXY 17

Track GALAXY 17 now!
GALAXY 17 is classified as:


NORAD ID: 31307
Int'l Code: 2007-016B
Perigee: 35,781.3 km
Apogee: 35,806.5 km
Inclination: 1.0 °
Period: 1,436.1 minutes
Semi major axis: 42164 km
RCS: 11.2895 m2 (large)
Launch date: May 4, 2007
Source: United States (US)
Launch site: FRENCH GUIANA (FRGUI)

Galaxy 17 is a C- and Ku-band television and telephony services satellite that will serve North America
Your satellite tracking list
Your tracking list is empty




NASA's NSSDC Master Catalog

Two Line Element Set (TLE):
1 31307U 07016B   24110.51957368 -.00000206  00000-0  00000-0 0  9999
2 31307   0.9680  89.9829 0002987 309.8203 270.3407  1.00271354 61895
Source of the keplerian elements: AFSPC